• In Hungary
  • List of Countries
  • For 7 days
  • Water Temperature
  • Satellite Maps
  • Weather Map
  • News
  • Weather Widgets
  • user-avatar
    Login

    Hourly Weather Priyut-Shuran

    Today, 25 September, Tuesday

    Time Temperature Precipitation Wind Pressure Humidity
    00:00 +14°C° 0 mm 3 mps 753 mmHg 68%
    01:00 +14°C° 0 mm 3 mps 753 mmHg 69%
    02:00 +13°C° 0 mm 3 mps 753 mmHg 70%
    03:00 +13°C° 0 mm 3 mps 753 mmHg 72%
    04:00 +13°C° 0 mm 2 mps 753 mmHg 79%
    05:00 +12°C° 0 mm 3 mps 753 mmHg 80%
    06:00 +12°C° 0 mm 4 mps 753 mmHg 81%
    07:00 +13°C° 0 mm 5 mps 753 mmHg 81%
    08:00 +13°C° 0 mm 5 mps 753 mmHg 80%
    09:00 +14°C° 0 mm 6 mps 753 mmHg 78%
    10:00 +15°C° 0 mm 7 mps 753 mmHg 76%
    11:00 +16°C° 0 mm 7 mps 753 mmHg 72%
    12:00 +16°C° 0 mm 7 mps 753 mmHg 68%
    13:00 +16°C° 0 mm 7 mps 753 mmHg 64%
    14:00 +17°C° 0 mm 7 mps 753 mmHg 63%
    15:00 +17°C° 0 mm 7 mps 753 mmHg 61%
    16:00 +17°C° 0 mm 6 mps 753 mmHg 60%
    17:00 +16°C° 0 mm 6 mps 753 mmHg 62%
    18:00 +15°C° 0 mm 5 mps 752 mmHg 65%
    19:00 +14°C° 0 mm 5 mps 752 mmHg 67%
    20:00 +14°C° 1.1 mm 5 mps 752 mmHg 72%
    21:00 +14°C° 1.1 mm 5 mps 752 mmHg 76%
    22:00 +14°C° 1.1 mm 5 mps 752 mmHg 81%
    23:00 +14°C° 0.3 mm 6 mps 752 mmHg 79%

    Tomorrow, 26 September, Wednesday

    Time Temperature Precipitation Wind Pressure Humidity
    00:00 +14°C° 0.3 mm 6 mps 752 mmHg 76%
    01:00 +14°C° 0.3 mm 6 mps 752 mmHg 74%
    02:00 +14°C° 0 mm 6 mps 752 mmHg 73%
    03:00 +14°C° 0 mm 6 mps 752 mmHg 71%
    04:00 +14°C° 0 mm 6 mps 752 mmHg 69%
    05:00 +13°C° 0 mm 5 mps 752 mmHg 70%
    06:00 +13°C° 0 mm 5 mps 753 mmHg 71%
    07:00 +13°C° 0 mm 5 mps 753 mmHg 72%
    08:00 +12°C° 0.1 mm 4 mps 753 mmHg 74%
    09:00 +12°C° 0.1 mm 4 mps 754 mmHg 76%
    10:00 +12°C° 0.1 mm 4 mps 754 mmHg 78%
    11:00 +12°C° 0.3 mm 4 mps 755 mmHg 76%
    12:00 +12°C° 0.3 mm 4 mps 755 mmHg 74%
    13:00 +12°C° 0.3 mm 4 mps 755 mmHg 72%
    14:00 +12°C° 0.2 mm 4 mps 756 mmHg 73%
    15:00 +12°C° 0.2 mm 4 mps 756 mmHg 74%
    16:00 +12°C° 0.2 mm 4 mps 756 mmHg 75%
    17:00 +11°C° 0.1 mm 4 mps 756 mmHg 76%
    18:00 +11°C° 0.1 mm 3 mps 757 mmHg 78%
    19:00 +10°C° 0.1 mm 3 mps 757 mmHg 79%
    20:00 +10°C° 0.1 mm 3 mps 757 mmHg 80%
    21:00 +10°C° 0.1 mm 3 mps 757 mmHg 81%
    22:00 +9°C° 0.1 mm 2 mps 757 mmHg 82%
    23:00 +9°C° 0 mm 3 mps 757 mmHg 84%

    Day after tomorrow, 27 September, Thursday

    Time Temperature Precipitation Wind Pressure Humidity
    00:00 +9°C° 0 mm 3 mps 757 mmHg 86%
    01:00 +8°C° 0 mm 3 mps 757 mmHg 87%
    02:00 +8°C° 0 mm 3 mps 757 mmHg 88%
    03:00 +8°C° 0 mm 3 mps 756 mmHg 89%
    04:00 +7°C° 0 mm 3 mps 756 mmHg 90%
    05:00 +7°C° 0 mm 3 mps 756 mmHg 89%
    06:00 +7°C° 0 mm 3 mps 756 mmHg 89%
    07:00 +7°C° 0 mm 3 mps 756 mmHg 88%
    08:00 +7°C° 0 mm 4 mps 755 mmHg 82%
    09:00 +7°C° 0 mm 5 mps 755 mmHg 77%
    10:00 +8°C° 0 mm 5 mps 754 mmHg 71%
    11:00 +9°C° 0 mm 6 mps 754 mmHg 67%
    12:00 +9°C° 0 mm 6 mps 753 mmHg 62%
    13:00 +9°C° 0 mm 7 mps 753 mmHg 58%
    14:00 +10°C° 0 mm 7 mps 752 mmHg 56%
    15:00 +10°C° 0 mm 7 mps 752 mmHg 55%
    16:00 +10°C° 0 mm 8 mps 751 mmHg 53%
    17:00 +9°C° 0 mm 7 mps 751 mmHg 56%
    18:00 +8°C° 0 mm 6 mps 750 mmHg 58%
    19:00 +8°C° 0 mm 5 mps 750 mmHg 60%
    20:00 +7°C° 0.2 mm 6 mps 749 mmHg 63%
    21:00 +7°C° 0.2 mm 6 mps 748 mmHg 65%
    22:00 +6°C° 0.2 mm 7 mps 748 mmHg 68%
    23:00 +5°C° 0.5 mm 7 mps 747 mmHg 72%

    28 September, Friday

    Time Temperature Precipitation Wind Pressure Humidity
    00:00 +5°C° 0.5 mm 7 mps 746 mmHg 76%
    01:00 +4°C° 0.5 mm 8 mps 745 mmHg 80%
    02:00 +4°C° 0.5 mm 7 mps 745 mmHg 82%
    03:00 +4°C° 0.5 mm 7 mps 745 mmHg 85%
    04:00 +5°C° 0.5 mm 6 mps 744 mmHg 87%
    05:00 +5°C° 0 mm 6 mps 745 mmHg 87%
    06:00 +5°C° 0 mm 6 mps 745 mmHg 88%
    07:00 +5°C° 0 mm 6 mps 746 mmHg 88%
    08:00 +5°C° 0 mm 6 mps 746 mmHg 85%
    09:00 +5°C° 0 mm 7 mps 747 mmHg 82%
    10:00 +5°C° 0 mm 7 mps 748 mmHg 79%
    11:00 +6°C° 0 mm 7 mps 748 mmHg 77%
    12:00 +6°C° 0 mm 7 mps 749 mmHg 75%
    13:00 +6°C° 0 mm 7 mps 749 mmHg 73%
    14:00 +6°C° 0 mm 7 mps 749 mmHg 72%
    15:00 +8°C° 0 mm 7 mps 750 mmHg 72%
    16:00 +8°C° 0 mm 7 mps 750 mmHg 71%
    17:00 +7°C° 0 mm 6 mps 750 mmHg 73%
    18:00 +7°C° 0 mm 5 mps 750 mmHg 75%
    19:00 +6°C° 0 mm 4 mps 750 mmHg 77%
    20:00 +7°C° 0.1 mm 4 mps 750 mmHg 77%
    21:00 +7°C° 0.1 mm 5 mps 750 mmHg 76%
    22:00 +7°C° 0.1 mm 5 mps 749 mmHg 76%
    23:00 +7°C° 0.7 mm 6 mps 748 mmHg 76%

    29 September, Saturday

    Time Temperature Precipitation Wind Pressure Humidity
    00:00 +8°C° 0.7 mm 7 mps 747 mmHg 75%
    01:00 +7°C° 0.7 mm 8 mps 746 mmHg 75%
    02:00 +7°C° 0.7 mm 9 mps 745 mmHg 76%
    03:00 +8°C° 0.7 mm 10 mps 744 mmHg 77%
    04:00 +8°C° 0.7 mm 11 mps 744 mmHg 78%
    05:00 +8°C° 0.5 mm 11 mps 744 mmHg 79%
    06:00 +9°C° 0.5 mm 11 mps 744 mmHg 80%
    07:00 +9°C° 0.5 mm 11 mps 744 mmHg 81%
    08:00 +8°C° 0 mm 11 mps 746 mmHg 77%
    09:00 +7°C° 0 mm 10 mps 747 mmHg 73%
    10:00 +7°C° 0 mm 10 mps 749 mmHg 70%
    11:00 +6°C° 0 mm 9 mps 750 mmHg 68%
    12:00 +6°C° 0 mm 9 mps 751 mmHg 67%
    13:00 +6°C° 0 mm 8 mps 752 mmHg 66%
    14:00 +6°C° 0 mm 8 mps 753 mmHg 63%
    15:00 +6°C° 0 mm 8 mps 753 mmHg 60%
    16:00 +6°C° 0 mm 7 mps 754 mmHg 57%
    17:00 +5°C° 0 mm 6 mps 755 mmHg 59%
    18:00 +5°C° 0 mm 5 mps 755 mmHg 62%
    19:00 +4°C° 0 mm 4 mps 756 mmHg 64%
    20:00 +4°C° 0 mm 3 mps 757 mmHg 67%
    21:00 +3°C° 0 mm 3 mps 757 mmHg 69%
    22:00 +3°C° 0 mm 3 mps 758 mmHg 71%
    23:00 +2°C° 0 mm 3 mps 758 mmHg 73%

    30 September, Sunday

    Time Temperature Precipitation Wind Pressure Humidity
    00:00 +2°C° 0 mm 3 mps 759 mmHg 75%
    01:00 +1°C° 0 mm 3 mps 759 mmHg 76%
    02:00 +1°C° 0 mm 3 mps 759 mmHg 75%
    03:00 +1°C° 0 mm 3 mps 760 mmHg 74%
    04:00 +1°C° 0 mm 3 mps 760 mmHg 72%
    05:00 +1°C° 0 mm 3 mps 760 mmHg 72%
    06:00 +1°C° 0 mm 3 mps 761 mmHg 72%
    07:00 +2°C° 0 mm 2 mps 761 mmHg 72%
    08:00 +2°C° 0 mm 3 mps 761 mmHg 69%
    09:00 +3°C° 0 mm 3 mps 761 mmHg 65%
    10:00 +4°C° 0 mm 3 mps 762 mmHg 62%
    11:00 +5°C° 0 mm 3 mps 761 mmHg 59%
    12:00 +7°C° 0 mm 3 mps 761 mmHg 57%
    13:00 +8°C° 0 mm 3 mps 761 mmHg 54%
    14:00 +8°C° 0 mm 3 mps 761 mmHg 54%
    15:00 +7°C° 0 mm 3 mps 761 mmHg 54%
    16:00 +7°C° 0 mm 3 mps 761 mmHg 54%
    17:00 +7°C° 0 mm 3 mps 761 mmHg 57%
    18:00 +5°C° 0 mm 3 mps 761 mmHg 59%
    19:00 +5°C° 0 mm 2 mps 762 mmHg 62%
    20:00 +5°C° 0 mm 2 mps 762 mmHg 64%
    21:00 +4°C° 0 mm 2 mps 762 mmHg 67%
    22:00 +4°C° 0 mm 2 mps 762 mmHg 69%
    23:00 +3°C° 0 mm 2 mps 762 mmHg 70%
    Show more